Location: Baia Mare
(47.6567°N, 23.5850°E)
Time: 13:34:42
(UTC+03:00)

ISS - Pass Details

Date: 01 August 2019
Orbit: 409 x 418 km, 51.6° (Epoch: 21 July)

Event Time Altitude Azimuth Distance (km) Brightness Sun altitude
Rises 22:13:41 0° 293° (WNW) 2,357 1.6 -10.8°
Reaches altitude 10° 22:15:49 10° 289° (WNW) 1,490 0.2 -11.1°
Maximum altitude 22:19:05 54° 211° (SSW) 506 -3.5 -11.5°
Enters shadow 22:21:09 20° 139° (SE) 1,019 -2.5 -11.7°
